#timestamp,LO_Frequency,Hit 
1501135215.5,286047004.1,N
1501135235.4,286047003.7,N
1501135255.2,286047002.7,N
1501135275.0,286047001.3,N
1501135275.9,286047001.3,N
1501135295.8,286047006.4,N
1501135315.6,286047006.7,Y
1501135335.4,286047001.3,N
1501135355.3,286047003.4,N
1501135375.1,286047002.9,N
1501135376.0,286047002.9,N
1501135395.8,286047005.5,N
1501135415.7,286047003.9,N
1501135435.5,286047000.3,N
1501135455.3,286046999.8,N
1501135475.1,286047002.4,N
1501135495.9,286047000.3,N
1501135515.7,286046999.3,N
1501135535.5,286046996.5,N
1501135555.4,286046999.3,N
1501135575.2,286046996.5,N
1501135595.0,286046999.1,N
1501135595.9,286046999.1,N
1501135615.8,286046998.3,N
1501135635.6,286047001.6,N
1501135655.4,286047002.7,N
1501135675.3,286047000.8,N
1501135695.1,286047000.9,N
1501135696.0,286047000.9,N
1501135715.8,286047002.0,N
1501135735.7,286047004.2,N
1501135755.5,286047004.7,N
1501135775.3,286047004.8,N
1501135795.1,286047005.3,N
1501135815.9,286047003.3,N
1501135835.7,286047003.7,N
1501135855.5,286047002.1,N
1501135875.4,286047000.3,N
1501135895.2,286047006.0,N
1501135915.0,286047003.4,N
1501135915.9,286047003.4,N
1501135935.8,286047002.7,N
1501135955.6,286046998.1,N
1501135975.4,286046998.8,N
1501135995.3,286047000.9,N
1501136015.1,286046998.1,N
1501136016.0,286046998.1,N
1501136035.8,286047000.1,N
1501136055.6,286047000.0,N
1501136075.5,286047000.5,N
1501136095.3,286046998.5,N
1501136115.1,286046998.4,N
1501136135.9,286046997.8,N
1501136155.7,286046995.7,N
1501136175.5,286046999.6,N
1501136195.4,286047001.1,N
1501136215.2,286046999.0,N
1501136235.0,286046997.5,N
1501136235.9,286046997.5,N
1501136255.8,286046997.1,N
1501136275.6,286046997.5,N
1501136295.4,286046999.3,N
1501136315.2,286046997.0,N
1501136335.1,286046995.3,N
1501136336.0,286046995.3,N
1501136355.8,286046996.2,N
1501136375.6,286046998.1,N
1501136395.5,286046996.9,N
1501136415.3,286046995.6,N
1501136435.1,286046995.8,N
1501136455.9,286046998.0,N
1501136475.7,286046995.0,N
1501136495.5,286046994.9,N
1501136515.4,286046998.2,N
1501136535.2,286046999.5,N
1501136555.0,286047000.3,N
1501136555.9,286047000.3,N
1501136575.8,286046998.9,N
1501136595.6,286046999.8,N
1501136615.4,286047000.4,N
1501136635.2,286047001.2,N
1501136655.1,286046998.8,N
1501136656.0,286046998.8,N
1501136675.8,286046996.6,N
1501136695.6,286047000.6,N
1501136715.5,286047001.2,N
1501136735.3,286046998.6,N
1501136755.1,286047000.6,N
1501136775.9,286046999.7,N
1501136795.7,286046997.7,N
1501136815.5,286046995.5,N
1501136835.4,286046995.3,N
1501136855.2,286046997.8,N
1501136875.0,286046997.5,N
1501136875.9,286046997.5,N
1501136895.8,286046996.5,N
1501136915.6,286046997.4,N
1501136935.4,286046997.0,N
1501136955.2,286046997.1,N
1501136975.1,286046997.0,N
1501136976.0,286046997.0,N
1501136995.8,286046999.7,N
1501137015.6,286047004.1,N
1501137035.5,286047001.7,N
1501137055.3,286047002.0,N
1501137075.1,286047002.0,N
1501137095.9,286047004.4,N
1501137115.7,286046999.7,N
1501137135.5,286047000.5,N
1501137155.4,286047000.3,N
1501137175.2,286047004.4,N
1501137195.0,286047002.0,N
1501137195.9,286047002.0,N
1501137215.7,286047002.3,N
1501137235.6,286046998.3,N
1501137255.4,286046998.5,N
1501137275.2,286046999.9,N
1501137295.1,286047001.1,N
1501137296.0,286047001.1,N
1501137315.8,286046998.7,N
1501137335.6,286046999.0,N
1501137355.5,286047001.1,N
1501137375.3,286047000.9,N
1501137395.1,286047000.4,N
1501137415.9,286047000.7,N
1501137435.7,286047002.6,N
1501137455.5,286047002.0,N
1501137475.3,286046999.7,N
1501137495.2,286047000.8,N
1501137515.0,286046998.8,N
1501137515.9,286046998.8,N
1501137535.7,286046998.7,N
1501137555.6,286047000.5,N
1501137575.4,286046999.9,N
1501137595.2,286046999.8,N
1501137615.1,286046998.6,N
1501137616.0,286046998.6,N
1501137635.8,286046998.2,N
1501137655.6,286046998.1,N
1501137675.5,286046998.4,N
1501137695.3,286047000.7,N
1501137715.1,286047001.2,N
1501137735.8,286047000.5,N
1501137755.7,286047000.7,N
1501137775.1,286047000.8,N
1501137776.0,286047000.8,N
1501137795.8,286046999.8,N
1501137815.8,286047000.6,N
1501137835.6,286047001.2,N
1501137855.5,286046998.1,N
1501137875.3,286047000.1,N
1501137895.2,286047002.4,N
1501137915.9,286047000.9,N
1501137935.7,286047000.4,N
1501137955.6,286047002.7,N
1501137975.4,286047002.6,N
1501137995.2,286047000.9,N
1501138015.0,286046999.9,N
1501138016.0,286046999.9,N
1501138035.8,286047002.3,N
1501138055.6,286047002.7,N
1501138075.4,286047002.1,N
1501138095.3,286047003.6,N
1501138115.1,286047002.0,N
1501138135.8,286047002.3,N
1501138155.7,286047002.4,N
1501138175.5,286047000.1,N
1501138195.3,286047000.0,N
1501138215.2,286047000.0,N
1501138235.9,286047002.8,N
1501138255.7,286047004.3,N
1501138275.6,286047002.0,N
1501138295.4,286047006.0,N
1501138315.2,286047003.6,N
1501138335.0,286047000.1,N
1501138335.9,286047000.1,N
1501138355.8,286046998.5,N
1501138375.6,286047000.6,N
1501138395.4,286047001.0,N
1501138415.3,286047000.2,N
1501138435.1,286046998.2,N
1501138455.8,286046999.3,N
1501138475.7,286047000.4,N
1501138495.5,286047003.5,N
1501138515.3,286047004.3,N
1501138535.2,286047002.6,N
1501138555.9,286047003.3,N
1501138575.7,286047002.6,N
1501138595.5,286047000.2,N
1501138615.4,286047002.7,N
1501138635.2,286046999.8,N
1501138655.0,286047002.5,N
1501138655.9,286047002.5,N
1501138675.8,286047002.0,N
1501138695.6,286047001.8,N
1501138715.4,286047001.6,N
1501138735.3,286047000.9,N
1501138755.1,286046998.6,N
1501138756.0,286046998.6,N
1501138775.8,286047000.7,N
1501138795.7,286047001.0,N
